| time (UTC) | temp F | wind direction | speed MPH | gust MPH | rain 1hr in | rain 24hr in | rain mn in | humidity % | barometer mb |
| 20260509191308 | 55 | 184 | 13.0 | 20.0 | 0.00 | 0.00 | 0.00 | 91 | 1010.1 |
| 20260509184806 | 56 | 174 | 13.0 | 22.0 | 0.00 | 0.00 | 0.00 | 90 | 1010.4 |
| 20260509183807 | 56 | 186 | 14.0 | 23.0 | 0.00 | 0.00 | 0.00 | 89 | 1010.4 |
| 20260509183307 | 56 | 182 | 14.0 | 23.0 | 0.00 | 0.00 | 0.00 | 89 | 1010.4 |
| 20260509182307 | 57 | 187 | 14.0 | 21.0 | 0.00 | 0.00 | 0.00 | 86 | 1010.4 |
| 20260509181306 | 58 | 181 | 12.0 | 21.0 | 0.00 | 0.00 | 0.00 | 85 | 1010.5 |
| 20260509175806 | 59 | 177 | 14.0 | 21.0 | 0.00 | 0.00 | 0.00 | 84 | 1010.8 |
| 20260509174807 | 58 | 190 | 10.0 | 15.0 | 0.00 | 0.00 | 0.00 | 82 | 1010.8 |
| 20260509173807 | 58 | 191 | 10.0 | 17.0 | 0.00 | 0.00 | 0.00 | 82 | 1010.7 |
| 20260509172806 | 58 | 192 | 9.0 | 14.0 | 0.00 | 0.00 | 0.00 | 82 | 1010.6 |
| 20260509171306 | 58 | 185 | 10.0 | 16.0 | 0.00 | 0.00 | 0.00 | 82 | 1010.8 |
| 20260509170806 | 58 | 189 | 10.0 | 16.0 | 0.00 | 0.00 | 0.00 | 82 | 1010.8 |
| 20260509170307 | 58 | 181 | 10.0 | 17.0 | 0.00 | 0.00 | 0.00 | 81 | 1010.8 |
| 20260509164307 | 60 | 192 | 10.0 | 16.0 | 0.00 | 0.00 | 0.00 | 80 | 1010.7 |
| 20260509163307 | 60 | 190 | 10.0 | 16.0 | 0.00 | 0.00 | 0.00 | 80 | 1010.9 |
| 20260509162806 | 60 | 195 | 9.0 | 14.0 | 0.00 | 0.00 | 0.00 | 80 | 1011.0 |
| 20260509160806 | 60 | 189 | 13.0 | 20.0 | 0.00 | 0.00 | 0.00 | 81 | 1011.5 |
| 20260509160306 | 60 | 208 | 10.0 | 17.0 | 0.00 | 0.00 | 0.00 | 80 | 1011.6 |
| 20260509155807 | 60 | 192 | 9.0 | 20.0 | 0.00 | 0.00 | 0.00 | 81 | 1011.7 |
| 20260509155306 | 60 | 187 | 9.0 | 21.0 | 0.00 | 0.00 | 0.00 | 80 | 1011.8 |
| 20260509154806 | 60 | 191 | 12.0 | 17.0 | 0.00 | 0.00 | 0.00 | 80 | 1011.8 |
| 20260509154306 | 60 | 202 | 10.0 | 20.0 | 0.00 | 0.00 | 0.00 | 80 | 1011.9 |
| 20260509151806 | 58 | 193 | 11.0 | 16.0 | 0.00 | 0.00 | 0.00 | 82 | 1012.0 |
| 20260509145806 | 58 | 199 | 9.0 | 15.0 | 0.00 | 0.00 | 0.00 | 83 | 1012.0 |
| 20260509145306 | 58 | 196 | 9.0 | 17.0 | 0.00 | 0.00 | 0.00 | 83 | 1012.0 |
| 20260509144806 | 58 | 196 | 10.0 | 18.0 | 0.00 | 0.00 | 0.00 | 82 | 1011.9 |
| 20260509143806 | 59 | 192 | 10.0 | 20.0 | 0.00 | 0.00 | 0.00 | 82 | 1011.9 |
| 20260509142307 | 58 | 204 | 10.0 | 16.0 | 0.00 | 0.00 | 0.00 | 83 | 1011.9 |
| 20260509141306 | 59 | 188 | 13.0 | 21.0 | 0.00 | 0.00 | 0.00 | 82 | 1011.8 |
| 20260509140807 | 59 | 200 | 10.0 | 18.0 | 0.00 | 0.00 | 0.00 | 82 | 1011.9 |
| 20260509135807 | 58 | 206 | 10.0 | 23.0 | 0.00 | 0.00 | 0.00 | 83 | 1011.9 |
| 20260509134807 | 58 | 197 | 10.0 | 18.0 | 0.00 | 0.00 | 0.00 | 83 | 1011.8 |
| 20260509134307 | 58 | 204 | 11.0 | 18.0 | 0.00 | 0.00 | 0.00 | 83 | 1011.9 |
| 20260509133806 | 58 | 205 | 11.0 | 20.0 | 0.00 | 0.00 | 0.00 | 83 | 1012.0 |
| 20260509132307 | 59 | 202 | 8.0 | 15.0 | 0.00 | 0.00 | 0.00 | 81 | 1012.0 |
| 20260509131806 | 59 | 214 | 7.0 | 14.0 | 0.00 | 0.00 | 0.00 | 80 | 1012.1 |
| 20260509131306 | 60 | 199 | 9.0 | 18.0 | 0.00 | 0.00 | 0.00 | 80 | 1012.1 |
| 20260509124806 | 59 | 215 | 10.0 | 21.0 | 0.00 | 0.00 | 0.00 | 81 | 1012.0 |
| 20260509124306 | 59 | 186 | 11.0 | 20.0 | 0.00 | 0.00 | 0.00 | 80 | 1012.1 |
| 20260509123806 | 60 | 191 | 9.0 | 14.0 | 0.00 | 0.00 | 0.00 | 78 | 1012.0 |
| 20260509122807 | 59 | 227 | 9.0 | 16.0 | 0.00 | 0.00 | 0.00 | 80 | 1012.0 |
| 20260509122306 | 59 | 215 | 9.0 | 16.0 | 0.00 | 0.00 | 0.00 | 80 | 1012.2 |
| 20260509121807 | 59 | 220 | 9.0 | 14.0 | 0.00 | 0.00 | 0.00 | 80 | 1012.2 |
| 20260509121306 | 59 | 213 | 8.0 | 13.0 | 0.00 | 0.00 | 0.00 | 81 | 1012.1 |
| 20260509115806 | 59 | 207 | 10.0 | 16.0 | 0.00 | 0.00 | 0.00 | 82 | 1012.2 |
| 20260509112806 | 57 | 206 | 7.0 | 13.0 | 0.00 | 0.00 | 0.00 | 84 | 1012.2 |
| 20260509111806 | 57 | 214 | 9.0 | 18.0 | 0.00 | 0.00 | 0.00 | 84 | 1012.2 |
| 20260509105806 | 56 | 207 | 12.0 | 16.0 | 0.00 | 0.00 | 0.00 | 84 | 1012.2 |
| 20260509104806 | 56 | 208 | 12.0 | 20.0 | 0.00 | 0.00 | 0.00 | 85 | 1012.3 |
| 20260509103807 | 56 | 202 | 9.0 | 16.0 | 0.00 | 0.00 | 0.00 | 84 | 1012.2 |
| 20260509102306 | 56 | 204 | 6.0 | 12.0 | 0.00 | 0.00 | 0.00 | 82 | 1012.0 |
| 20260509100306 | 56 | 195 | 6.0 | 12.0 | 0.00 | 0.00 | 0.00 | 82 | 1012.1 |
| 20260509095306 | 55 | 207 | 10.0 | 16.0 | 0.00 | 0.00 | 0.00 | 82 | 1011.9 |
| 20260509093806 | 56 | 203 | 7.0 | 13.0 | 0.00 | 0.00 | 0.00 | 78 | 1011.8 |
| 20260509093306 | 56 | 209 | 9.0 | 16.0 | 0.00 | 0.00 | 0.00 | 78 | 1011.8 |
| 20260509092808 | 56 | 203 | 9.0 | 14.0 | 0.00 | 0.00 | 0.00 | 78 | 1011.8 |
| 20260509092306 | 56 | 203 | 8.0 | 17.0 | 0.00 | 0.00 | 0.00 | 78 | 1011.7 |
| 20260509091807 | 56 | 206 | 9.0 | 20.0 | 0.00 | 0.00 | 0.00 | 78 | 1011.7 |
| 20260509083806 | 55 | 212 | 9.0 | 13.0 | 0.00 | 0.00 | 0.00 | 81 | 1011.9 |
| 20260509083306 | 55 | 210 | 7.0 | 14.0 | 0.00 | 0.00 | 0.00 | 80 | 1011.9 |
| 20260509082307 | 56 | 208 | 7.0 | 13.0 | 0.00 | 0.00 | 0.00 | 80 | 1011.9 |
| 20260509080307 | 55 | 201 | 6.0 | 12.0 | 0.00 | 0.00 | 0.00 | 81 | 1012.1 |
| 20260509075806 | 56 | 202 | 8.0 | 12.0 | 0.00 | 0.00 | 0.00 | 80 | 1012.1 |
| 20260509075307 | 57 | 187 | 7.0 | 12.0 | 0.00 | 0.00 | 0.00 | 78 | 1012.1 |
| 20260509074306 | 57 | 216 | 7.0 | 12.0 | 0.00 | 0.00 | 0.00 | 77 | 1012.0 |
| 20260509072306 | 57 | 227 | 6.0 | 14.0 | 0.00 | 0.00 | 0.00 | 77 | 1012.1 |
| 20260509070806 | 57 | 233 | 7.0 | 15.0 | 0.00 | 0.00 | 0.00 | 77 | 1012.1 |
| 20260509065806 | 57 | 206 | 6.0 | 12.0 | 0.00 | 0.00 | 0.00 | 80 | 1012.1 |
| 20260509063806 | 57 | 221 | 6.0 | 12.0 | 0.00 | 0.00 | 0.00 | 79 | 1012.3 |
| 20260509063306 | 57 | 234 | 7.0 | 13.0 | 0.00 | 0.00 | 0.00 | 79 | 1012.4 |
| 20260509062806 | 57 | 217 | 7.0 | 12.0 | 0.00 | 0.00 | 0.00 | 79 | 1012.4 |
| 20260509061806 | 57 | 239 | 7.0 | 14.0 | 0.00 | 0.00 | 0.00 | 79 | 1012.5 |
| 20260509055806 | 57 | 233 | 7.0 | 13.0 | 0.00 | 0.00 | 0.00 | 78 | 1012.6 |
| 20260509055307 | 57 | 229 | 8.0 | 14.0 | 0.00 | 0.00 | 0.00 | 78 | 1012.7 |
| 20260509052808 | 56 | 224 | 8.0 | 17.0 | 0.00 | 0.00 | 0.00 | 77 | 1012.8 |
| 20260509051806 | 56 | 221 | 9.0 | 13.0 | 0.00 | 0.00 | 0.00 | 77 | 1012.8 |
| 20260509051305 | 57 | 229 | 9.0 | 15.0 | 0.00 | 0.00 | 0.00 | 77 | 1012.9 |
| 20260509050806 | 56 | 211 | 9.0 | 14.0 | 0.00 | 0.00 | 0.00 | 76 | 1012.9 |
| 20260509050306 | 57 | 228 | 7.0 | 14.0 | 0.00 | 0.00 | 0.00 | 76 | 1012.9 |
| 20260509045806 | 57 | 204 | 9.0 | 16.0 | 0.00 | 0.00 | 0.00 | 76 | 1012.9 |
| 20260509045307 | 57 | 228 | 9.0 | 14.0 | 0.00 | 0.00 | 0.00 | 77 | 1012.9 |
| 20260509043806 | 57 | 224 | 10.0 | 16.0 | 0.00 | 0.00 | 0.00 | 77 | 1012.8 |
| 20260509043306 | 56 | 228 | 9.0 | 17.0 | 0.00 | 0.00 | 0.00 | 77 | 1012.8 |
| 20260509041306 | 57 | 221 | 8.0 | 14.0 | 0.00 | 0.00 | 0.00 | 76 | 1012.8 |
| 20260509035806 | 57 | 221 | 10.0 | 16.0 | 0.00 | 0.00 | 0.00 | 75 | 1012.8 |
| 20260509035306 | 57 | 228 | 10.0 | 16.0 | 0.00 | 0.00 | 0.00 | 75 | 1012.7 |
| 20260509033306 | 57 | 207 | 10.0 | 15.0 | 0.00 | 0.00 | 0.00 | 75 | 1012.6 |
| 20260509032307 | 57 | 210 | 9.0 | 15.0 | 0.00 | 0.00 | 0.00 | 77 | 1012.6 |
| 20260509031806 | 57 | 210 | 8.0 | 15.0 | 0.00 | 0.00 | 0.00 | 77 | 1012.6 |
| 20260509025307 | 58 | 216 | 10.0 | 16.0 | 0.00 | 0.00 | 0.00 | 76 | 1012.4 |
| 20260509023306 | 58 | 220 | 12.0 | 18.0 | 0.00 | 0.00 | 0.00 | 74 | 1012.5 |
| 20260509022806 | 58 | 228 | 12.0 | 20.0 | 0.00 | 0.00 | 0.00 | 74 | 1012.4 |
| 20260509021306 | 59 | 229 | 10.0 | 18.0 | 0.00 | 0.00 | 0.00 | 74 | 1012.4 |
| 20260509020306 | 58 | 229 | 12.0 | 17.0 | 0.00 | 0.00 | 0.00 | 74 | 1012.3 |
| 20260509015306 | 58 | 226 | 9.0 | 14.0 | 0.00 | 0.00 | 0.00 | 74 | 1012.3 |
| 20260509014806 | 58 | 231 | 9.0 | 16.0 | 0.00 | 0.00 | 0.00 | 75 | 1012.2 |
| 20260509014307 | 58 | 238 | 10.0 | 16.0 | 0.00 | 0.00 | 0.00 | 75 | 1012.2 |
| 20260509013806 | 58 | 229 | 10.0 | 14.0 | 0.00 | 0.00 | 0.00 | 76 | 1012.1 |
| 20260509012307 | 57 | 215 | 10.0 | 17.0 | 0.00 | 0.00 | 0.00 | 75 | 1011.9 |
| 20260509010807 | 57 | 213 | 10.0 | 18.0 | 0.00 | 0.00 | 0.00 | 74 | 1011.7 |
| 20260509005806 | 56 | 209 | 10.0 | 15.0 | 0.00 | 0.00 | 0.00 | 74 | 1011.6 |
| 20260509004806 | 56 | 214 | 7.0 | 12.0 | 0.00 | 0.00 | 0.00 | 74 | 1011.5 |
| 20260509003306 | 56 | 213 | 7.0 | 18.0 | 0.00 | 0.00 | 0.00 | 73 | 1011.4 |
| 20260509002807 | 56 | 221 | 10.0 | 20.0 | 0.00 | 0.00 | 0.00 | 73 | 1011.4 |
| 20260509002306 | 56 | 215 | 11.0 | 20.0 | 0.00 | 0.00 | 0.00 | 73 | 1011.4 |
| 20260509000306 | 56 | 214 | 8.0 | 16.0 | 0.00 | 0.00 | 0.00 | 71 | 1011.3 |
| 20260508235806 | 56 | 216 | 7.0 | 14.0 | 0.00 | 0.00 | 0.00 | 71 | 1011.3 |
| 20260508234306 | 56 | 206 | 10.0 | 20.0 | 0.00 | 0.00 | 0.00 | 69 | 1011.2 |
| 20260508233806 | 56 | 210 | 10.0 | 17.0 | 0.00 | 0.00 | 0.00 | 68 | 1011.2 |
| 20260508232805 | 56 | 221 | 9.0 | 16.0 | 0.00 | 0.00 | 0.00 | 67 | 1011.1 |
| 20260508232307 | 56 | 207 | 13.0 | 20.0 | 0.00 | 0.00 | 0.00 | 67 | 1011.1 |
| 20260508225307 | 57 | 206 | 13.0 | 22.0 | 0.00 | 0.00 | 0.00 | 63 | 1010.8 |
| 20260508215805 | 56 | 194 | 13.0 | 24.0 | 0.00 | 0.00 | 0.00 | 67 | 1010.8 |
| 20260508213306 | 57 | 200 | 13.0 | 22.0 | 0.00 | 0.00 | 0.00 | 65 | 1010.7 |
| 20260508212306 | 56 | 194 | 10.0 | 23.0 | 0.00 | 0.00 | 0.00 | 64 | 1010.8 |
| 20260508211306 | 57 | 210 | 11.0 | 20.0 | 0.00 | 0.00 | 0.00 | 64 | 1010.7 |
| 20260508210306 | 56 | 196 | 12.0 | 22.0 | 0.00 | 0.00 | 0.00 | 63 | 1010.6 |
| 20260508204805 | 56 | 203 | 14.0 | 26.0 | 0.00 | 0.00 | 0.00 | 63 | 1010.7 |
| 20260508204307 | 56 | 211 | 14.0 | 18.0 | 0.00 | 0.00 | 0.00 | 63 | 1010.8 |
| 20260508203306 | 56 | 189 | 14.0 | 21.0 | 0.00 | 0.00 | 0.00 | 66 | 1010.7 |
| 20260508202805 | 56 | 188 | 11.0 | 24.0 | 0.00 | 0.00 | 0.00 | 64 | 1010.7 |
| 20260508200806 | 56 | 194 | 12.0 | 18.0 | 0.00 | 0.00 | 0.00 | 72 | 1010.6 |
| 20260508193805 | 56 | 197 | 13.0 | 20.0 | 0.00 | 0.00 | 0.00 | 72 | 1010.9 |
| 20260508193305 | 56 | 179 | 14.0 | 24.0 | 0.00 | 0.00 | 0.00 | 71 | 1010.8 |
| 20260508192306 | 56 | 183 | 12.0 | 20.0 | 0.00 | 0.00 | 0.00 | 71 | 1010.9 |